星链-3786 (STARLINK-3786 )

导读

STARLINK-3786是美国太空探索技术公司 SpaceX 星链(Starlink)卫星互联网项目中的一颗卫星,于2022年4月21日发射升空。该卫星属于星链星座组网卫星,主要用于为全球提供低延迟、高速率的宽带互联网服务,目前在轨运行,推进星链全球覆盖的部署进程。

Basic Information
目录编号:
52263
目录名称:
STARLINK-3786
国际标识:
2022-041C
轨道中心:
EARTH
卫星名称:
星链-3786
卫星全名:
星链-3786 (STARLINK-3786 )
卫星状态:
在轨 (已飞行1597 天)
发射日期:
2022-04-21 UTC
国别 :
美国 (US)
星等 :
--
Orbit Information
数据来源 国际轨道数据
星历时间: 2026-09-03T03:14:49+0800
1天前
查看轨道信息
半长轴: 6843.376km
偏心率: 0.0001312
轨道倾角: 53.162°
近地点辐角 63.855°
升交点赤经 30.261°
平近点角 296.259°
近地点: 464.341km
远地点: 466.137km
周期: 93.900分钟
每日圈数: 15.335474
Detailed Information
固有亮度:
5
最大亮度:
2.5
卫星平台:
Starlink v1.5
覆盖范围:
全球
运营商:
太空探索技术公司
运营商所在国:
美国
制造商(研发单位):
太空探索技术公司
制造商所在国:
美国
使用方式:
暂无
Satellite Introduction
星链(Starlink)计划是由太空探索技术公司(SpaceX)提出的一个巨型低轨卫星互联网星座项目,计划在2019年至2024年间在太空搭建由约1.2万颗卫星组成的“星链”网络,其中1584颗将部署在地球上空550千米处的近地轨道,并从2020年开始工作。该卫星仍在工作。
2D Orbit Map
3D Orbit Map
Orbit Altitude Analysis Chart
Orbit Inclination Analysis Chart
Orbit Comprehensive Analysis Chart
View Comprehensive Chart
Conjunction Data List
Event ID Objects TCA Miss Dist (km) Collision Risk Probability Collision Risk Index (CRI) Action
CDM_260904-185905-226306-238021
OBJECT D (62380)
2026-09-04T
18:59:09+0000
1.544 km
极远距离
5.148185E-6 低风险 0.49
CDM_260903-082505-226306-802722
2026-09-03T
08:25:36+0000
2.287 km
极远距离
2.078439E-6 低风险 0.41
CDM_260903-101505-226306-854321
2026-09-03T
10:15:34+0000
2.126 km
极远距离
2.074634E-6 低风险 0.41
CDM_260903-170505-226306-919721
2026-09-03T
17:05:40+0000
2.259 km
极远距离
1.900569E-6 低风险 0.41
CDM_260903-060405-226305-380121
2026-09-03T
06:04:40+0000
2.369 km
极远距离
1.685944E-6 低风险 0.4
CDM_260904-165805-226306-931622
2026-09-04T
16:58:23+0000
2.434 km
极远距离
1.663957E-6 低风险 0.39
CDM_260901-132005-226306-801522
2026-09-01T
13:20:39+0000
2.596 km
极远距离
1.623358E-6 低风险 0.39
CDM_260904-194905-226306-833821
2026-09-04T
19:49:54+0000
2.514 km
极远距离
1.525288E-6 低风险 0.39
CDM_260903-102505-226306-921522
2026-09-03T
10:25:34+0000
2.706 km
极远距离
1.447825E-6 低风险 0.38
CDM_260903-001805-226305-367023
2026-09-03T
00:18:49+0000
2.571 km
极远距离
1.438336E-6 低风险 0.38